Location: Eferding
(48.3167°N, 14.0167°E)
Time: 03:25:12
(UTC+00:00)

SMAP - Pass Details

Date: 12 November 2019
Orbit: 681 x 683 km, 98.1° (Epoch: 12 December)

Event Time Altitude Azimuth Distance (km) Brightness Sun altitude
Rises 16:22:43 0° 166° (SSE) 3,033 6.4 -9.1°
Reaches altitude 10° 16:24:56 10° 166° (SSE) 2,122 5.6 -9.4°
Maximum altitude 16:29:36 86° 256° (WSW) 692 3.1 -10.2°
Drops below altitude 10° 16:34:17 10° 345° (NNW) 2,139 5.6 -10.9°
Sets 16:36:32 0° 346° (NNW) 3,059 6.4 -11.3°
